Location: Kalberh�ni
(46.4610°N, 7.2453°E)
Time: 21:13:19
(UTC+00:00)

USA 229 - Pass Details

Date: 30 October 2021
Orbit: 946 x 1266 km, 63.4° (Epoch: 25 November)

Event Time Altitude Azimuth Distance (km) Brightness Sun altitude
Rises 18:28:25 0° 252° (WSW) 3,671 7.7 -22.8°
Reaches altitude 10° 18:31:09 10° 261° (W) 2,759 6.9 -23.2°
Maximum altitude 18:37:04 36° 327° (NNW) 1,594 4.9 -24.3°
Enters shadow 18:42:28 14° 28° (NNE) 2,663 5.6 -25.2°
